This demonstration page uses our WeatherBlox Daily Observations layout. Learn more.

Left ArrowRight Arrow

40.92945, -100.16068

Hourly Observations for November 15, 2019

Temp ( °F °C ) Dew Point ( °F °C ) Humidity (%) Winds ( mph kmh ) Pressure ( in mb ) Visibility ( mi km ) Precip ( " mm )
12:15 am 00:15 Clear 40 4.3 31 -0.6 71 71 SSW 12 19 30.33 1027 10 16.0934 0 0
12:35 am 00:35 Clear 39 4 31 -0.8 71 71 SSW 13 20 30.33 1027 10 16.0934 0 0
12:55 am 00:55 Clear 38 3.3 30 -1 74 74 SSW 9 15 30.34 1027 10 16.0934 0 0
1:15 am 01:15 Clear 37 3 30 -1.1 75 75 SSW 9 15 30.33 1027 10 16.0934 0 0
1:35 am 01:35 Clear 37 2.7 30 -1.2 76 76 SSW 7 11 30.32 1027 10 16.0934 0 0
1:55 am 01:55 Clear 37 2.9 30 -1.3 74 74 SW 7 11 30.33 1027 10 16.0934 0 0
2:15 am 02:15 Clear 36 2.4 29 -1.5 76 76 SSW 8 13 30.32 1027 10 16.0934 0 0
2:35 am 02:35 Clear 35 1.7 29 -1.6 79 79 SSW 8 13 30.33 1027 10 16.0934 0 0
2:55 am 02:55 Clear 34 1 28 -2 81 81 S 7 11 30.33 1027 10 16.0934 0 0
3:15 am 03:15 Clear 32 -0.2 27 -2.7 83 83 S 7 11 30.34 1027 10 16.0934 0 0
3:35 am 03:35 Clear 31 -0.6 27 -2.7 86 86 Calm 30.34 1028 10 16.0934 0 0
3:55 am 03:55 Clear 33 0.5 28 -2.2 82 82 Calm 30.32 1027 10 16.0934 0 0
4:15 am 04:15 Clear 34 0.9 28 -2.1 81 81 Calm 30.31 1026 10 16.0934 0 0
4:35 am 04:35 Clear 34 1.2 28 -2 79 79 Calm 30.31 1026 10 16.0934 0 0
4:55 am 04:55 Clear 33 0.5 28 -2.3 82 82 Calm 30.31 1027 10 16.0934 0 0
5:15 am 05:15 Clear 34 1.3 28 -2 79 79 S 3 6 30.29 1026 10 16.0934 0 0
5:35 am 05:35 Clear 33 0.8 28 -2.2 81 81 SE 3 6 30.3 1026 10 16.0934 0 0
5:55 am 05:55 Clear 29 -1.8 26 -3.3 90 90 SE 5 7 30.32 1027 10 16.0934 0 0
6:15 am 06:15 Clear 31 -0.4 27 -2.9 83 83 SSE 6 9 30.29 1026 10 16.0934 0 0
6:35 am 06:35 Clear 34 1.1 29 -1.9 81 81 SSE 7 11 30.28 1025 10 16.0934 0 0
6:55 am 06:55 Clear 33 0.4 28 -2.4 82 82 SSE 6 9 30.28 1026 10 16.0934 0 0
7:15 am 07:15 Clear 31 -0.8 26 -3.1 85 85 ESE 6 9 30.29 1026 10 16.0934 0 0
7:35 am 07:35 Sunny 30 -1 27 -3 86 86 SE 6 9 30.29 1026 10 16.0934 0 0
7:55 am 07:55 Sunny 31 -0.7 27 -2.7 87 87 SE 7 11 30.28 1026 10 16.0934 0 0
8:15 am 08:15 Sunny 32 0.1 28 -2 86 86 ESE 6 9 30.28 1025 10 16.0934 0 0
8:35 am 08:35 Sunny 34 1.2 29 -1.5 82 82 SE 5 7 30.28 1025 10 16.0934 0 0
8:55 am 08:55 Sunny 36 2 30 -1.3 79 79 SSE 6 9 30.27 1025 10 16.0934 0 0
9:15 am 09:15 Sunny 37 2.6 30 -1 77 77 S 5 7 30.26 1025 10 16.0934 0 0
9:35 am 09:35 Sunny 40 4.6 32 -0.1 72 72 S 7 11 30.23 1024 10 16.0934 0 0
9:55 am 09:55 Sunny 43 6 32 -0.1 65 65 SSE 8 13 30.22 1023 10 16.0934 0 0
10:15 am 10:15 Sunny 45 7.1 32 0.1 61 61 S 10 17 30.2 1023 10 16.0934 0 0
10:35 am 10:35 Sunny 45 7.4 32 0 60 60 S 9 15 30.2 1023 10 16.0934 0 0
10:55 am 10:55 Sunny 46 8 32 0.1 58 58 S 10 17 30.18 1022 10 16.0934 0 0
11:15 am 11:15 Sunny 48 9 33 0.4 55 55 S 12 19 30.16 1021 10 16.0934 0 0
11:35 am 11:35 Sunny 50 9.8 33 0.4 52 52 S 12 19 30.14 1021 10 16.0934 0 0
11:55 am 11:55 Sunny 51 10.6 33 0.6 50 50 S 13 20 30.13 1020 10 16.0934 0 0
12:15 pm 12:15 Sunny 53 11.7 33 0.5 46 46 S 15 24 30.11 1019 10 16.0934 0 0
12:35 pm 12:35 Sunny 55 13 33 0.7 43 43 S 15 24 30.08 1019 10 16.0934 0 0
12:55 pm 12:55 Sunny 56 13.6 33 0.6 41 41 S 17 28 30.07 1018 10 16.0934 0 0
1:15 pm 13:15 Sunny 58 14.3 33 0.8 40 40 S 15 24 30.06 1018 10 16.0934 0 0
1:35 pm 13:35 Sunny 58 14.5 33 0.6 39 39 S 16 26 30.04 1017 10 16.0934 0 0
1:55 pm 13:55 Sunny 59 14.9 33 0.6 38 38 S 16 26 30.03 1017 10 16.0934 0 0
2:15 pm 14:15 Sunny 60 15.3 33 0.8 38 38 S 16 26 30.02 1017 10 16.0934 0 0
2:35 pm 14:35 Sunny 60 15.8 34 0.9 37 37 SSW 15 24 30.02 1017 10 16.0934 0 0
2:55 pm 14:55 Sunny 61 16.1 34 1.1 36 36 SSW 16 26 30.01 1016 10 16.0934 0 0
3:15 pm 15:15 Sunny 60 15.3 34 1 38 38 S 13 20 30.01 1016 10 16.0934 0 0
3:35 pm 15:35 Sunny 60 15.5 34 1 38 38 S 12 19 30.01 1016 10 16.0934 0 0
3:55 pm 15:55 Sunny 60 15.5 33 0.8 37 37 S 13 20 30 1016 10 16.0934 0 0
4:15 pm 16:15 Sunny 60 15.4 34 1.1 38 38 S 8 13 30 1016 10 16.0934 0 0
4:35 pm 16:35 Sunny 59 15.1 34 1.2 39 39 S 8 13 30 1016 10 16.0934 0 0
4:55 pm 16:55 Sunny 56 13.4 34 1.2 44 44 S 9 15 30.02 1017 10 16.0934 0 0
5:15 pm 17:15 Sunny 52 11.3 33 0.8 49 49 SSE 8 13 30.04 1017 10 16.0934 0 0
5:35 pm 17:35 Clear 51 10.6 33 0.7 51 51 SSE 8 13 30.05 1017 10 16.0934 0 0
5:55 pm 17:55 Clear 50 9.8 33 0.5 53 53 SSE 7 11 30.05 1018 10 16.0934 0 0
6:15 pm 18:15 Clear 51 10.5 33 0.7 51 51 SE 6 9 30.05 1017 10 16.0934 0 0
6:35 pm 18:35 Clear 50 9.8 33 0.6 53 53 SE 7 11 30.05 1018 10 16.0934 0 0
6:55 pm 18:55 Clear 49 9.3 33 0.5 54 54 SE 6 9 30.06 1018 10 16.0934 0 0
7:15 pm 19:15 Clear 49 9.3 33 0.6 55 55 SSE 9 15 30.06 1018 10 16.0934 0 0
7:35 pm 19:35 Clear 50 9.9 33 0.5 52 52 SSE 12 19 30.05 1018 10 16.0934 0 0
7:55 pm 19:55 Clear 48 8.8 32 0.2 55 55 SSE 8 13 30.07 1018 10 16.0934 0 0
8:15 pm 20:15 Clear 48 9.1 32 0.1 54 54 S 10 17 30.06 1018 10 16.0934 0 0
8:35 pm 20:35 Clear 49 9.5 32 0.1 52 52 S 14 22 30.06 1018 10 16.0934 0 0
8:55 pm 20:55 Clear 49 9.4 32 0 52 52 S 15 24 30.06 1018 10 16.0934 0 0
9:15 pm 21:15 Clear 47 8.6 32 -0.1 55 55 SSE 15 24 30.05 1018 10 16.0934 0 0
9:35 pm 21:35 Clear 46 7.9 32 -0.1 57 57 SSE 9 15 30.07 1018 10 16.0934 0 0
9:55 pm 21:55 Clear 46 7.6 32 -0.2 58 58 SE 8 13 30.07 1018 10 16.0934 0 0
10:15 pm 22:15 Clear 46 7.5 32 -0.1 59 59 SE 8 13 30.07 1018 10 16.0934 0 0
10:35 pm 22:35 Clear 46 7.6 32 -0.2 58 58 SSE 10 17 30.07 1018 10 16.0934 0 0
10:55 pm 22:55 Clear 46 7.5 32 -0.2 58 58 SSE 12 19 30.06 1018 10 16.0934 0 0
11:15 pm 23:15 Clear 45 7 31 -0.3 60 60 SSE 12 19 30.07 1018 10 16.0934 0 0
11:35 pm 23:35 Clear 44 6.5 31 -0.4 62 62 SE 5 7 30.07 1018 10 16.0934 0 0
11:55 pm 23:55 Clear 44 6.4 31 -0.5 62 62 SSE 9 15 30.06 1018 10 16.0934 0 0

Powered by AerisWeather